Time,TemperatureF,DewpointF,PressureIn,WindDirection,WindDirectionDegrees,WindSpeedMPH,WindSpeedGustMPH,Humidity,HourlyPrecipIn,Conditions,Clouds,dailyrainin,SoftwareType,DateUTC
2013-03-22 00:02:00,67.0,65.0,30.07,SW,224,2.0,4.0,92,0.00,,,0.03,,2013-03-22 10:02:00,
2013-03-22 00:12:00,67.0,65.0,30.07,SW,224,2.0,4.0,92,0.00,,,0.03,,2013-03-22 10:12:00,
2013-03-22 00:22:00,67.0,65.0,30.07,WSW,252,3.0,5.0,92,0.00,,,0.03,,2013-03-22 10:22:00,
2013-03-22 00:32:00,67.0,65.0,30.07,SW,218,3.0,6.0,92,0.00,,,0.03,,2013-03-22 10:32:00,
2013-03-22 00:42:00,67.0,65.0,30.07,SW,218,3.0,6.0,92,0.00,,,0.03,,2013-03-22 10:42:00,
2013-03-22 00:52:00,67.0,65.0,30.06,SW,220,4.0,7.0,92,0.00,,,0.03,,2013-03-22 10:52:00,
2013-03-22 01:02:00,67.0,65.0,30.06,SW,223,2.0,5.0,92,0.00,,,0.03,,2013-03-22 11:02:00,
2013-03-22 01:12:00,67.0,65.0,30.06,SW,223,2.0,5.0,92,0.00,,,0.03,,2013-03-22 11:12:00,
2013-03-22 01:22:00,67.0,65.0,30.06,SW,220,3.0,5.0,92,0.00,,,0.01,,2013-03-22 11:22:00,
2013-03-22 01:32:00,67.0,65.0,30.05,SW,215,3.0,5.0,93,0.00,,,0.01,,2013-03-22 11:32:00,
2013-03-22 01:42:00,67.0,65.0,30.05,SW,215,3.0,5.0,93,0.00,,,0.01,,2013-03-22 11:42:00,
2013-03-22 01:52:00,67.0,65.0,30.05,SW,220,3.0,6.0,93,0.00,,,0.01,,2013-03-22 11:52:00,
2013-03-22 02:01:00,67.0,65.0,30.05,SSW,204,3.0,4.0,93,0.00,,,0.01,,2013-03-22 12:01:00,
2013-03-22 02:12:00,67.0,65.0,30.05,SSW,204,3.0,4.0,93,0.00,,,0.01,,2013-03-22 12:12:00,
2013-03-22 02:22:00,67.0,65.0,30.05,SW,219,3.0,6.0,93,0.00,,,0.00,,2013-03-22 12:22:00,
2013-03-22 02:32:00,67.0,65.0,30.05,SW,228,3.0,5.0,93,0.00,,,0.00,,2013-03-22 12:32:00,
2013-03-22 02:42:00,67.0,65.0,30.05,SW,228,3.0,5.0,93,0.00,,,0.00,,2013-03-22 12:42:00,
2013-03-22 02:52:00,67.0,65.0,30.04,SSW,206,4.0,5.0,93,0.00,,,0.00,,2013-03-22 12:52:00,
2013-03-22 03:02:00,67.0,65.0,30.03,SSW,210,5.0,6.0,93,0.00,,,0.00,,2013-03-22 13:02:00,
2013-03-22 03:11:00,67.0,65.0,30.03,SSW,210,5.0,6.0,93,0.00,,,0.00,,2013-03-22 13:11:00,
2013-03-22 03:22:00,67.0,65.0,30.03,WSW,247,2.0,5.0,94,0.00,,,0.00,,2013-03-22 13:22:00,
2013-03-22 03:32:00,67.0,65.0,30.03,WSW,246,2.0,4.0,94,0.00,,,0.00,,2013-03-22 13:32:00,
2013-03-22 03:42:00,67.0,65.0,30.03,WSW,246,2.0,4.0,94,0.00,,,0.00,,2013-03-22 13:42:00,
2013-03-22 03:52:00,67.0,65.0,30.02,SW,214,3.0,5.0,93,0.00,,,0.00,,2013-03-22 13:52:00,
2013-03-22 04:02:00,67.0,65.0,30.02,SW,216,3.0,6.0,93,0.00,,,0.00,,2013-03-22 14:02:00,
2013-03-22 04:11:00,67.0,65.0,30.02,SW,216,3.0,6.0,93,0.00,,,0.00,,2013-03-22 14:11:00,
2013-03-22 04:21:00,67.0,65.0,30.02,SW,236,2.0,4.0,94,0.00,,,0.00,,2013-03-22 14:21:00,
2013-03-22 04:31:00,67.0,65.0,30.02,SW,231,2.0,4.0,94,0.00,,,0.00,,2013-03-22 14:31:00,
2013-03-22 04:42:00,67.0,65.0,30.02,SW,231,2.0,4.0,94,0.00,,,0.00,,2013-03-22 14:42:00,
2013-03-22 04:52:00,67.0,65.0,30.01,SW,222,2.0,3.0,94,0.00,,,0.00,,2013-03-22 14:52:00,
2013-03-22 05:02:00,67.0,65.0,30.01,SW,214,3.0,4.0,94,0.00,,,0.00,,2013-03-22 15:02:00,
2013-03-22 05:11:00,67.0,65.0,30.01,SW,214,3.0,4.0,94,0.00,,,0.00,,2013-03-22 15:11:00,
2013-03-22 05:22:00,66.0,64.0,30.01,SSW,213,3.0,5.0,94,0.00,,,0.00,,2013-03-22 15:22:00,
2013-03-22 05:32:00,66.0,64.0,30.01,SW,229,2.0,3.0,94,0.00,,,0.00,,2013-03-22 15:32:00,
2013-03-22 05:42:00,66.0,64.0,30.01,SW,229,2.0,3.0,94,0.00,,,0.00,,2013-03-22 15:42:00,
2013-03-22 05:52:00,66.0,64.0,30.02,SW,231,3.0,4.0,94,0.00,,,0.00,,2013-03-22 15:52:00,
2013-03-22 06:02:00,66.0,64.0,30.01,SW,218,5.0,6.0,94,0.00,,,0.00,,2013-03-22 16:02:00,
2013-03-22 06:13:00,65.0,63.0,30.01,SSW,212,5.0,7.0,94,0.00,,,0.00,,2013-03-22 16:13:00,
2013-03-22 06:22:00,65.0,63.0,30.01,SSW,212,5.0,7.0,94,0.00,,,0.00,,2013-03-22 16:22:00,
2013-03-22 06:32:00,65.0,64.0,30.01,SW,219,5.0,7.0,95,0.00,,,0.00,,2013-03-22 16:32:00,
2013-03-22 06:42:00,65.0,64.0,30.01,SW,219,5.0,7.0,95,0.00,,,0.00,,2013-03-22 16:42:00,
2013-03-22 06:52:00,66.0,65.0,30.01,SW,214,3.0,5.0,95,0.00,,,0.00,,2013-03-22 16:52:00,
2013-03-22 07:02:00,66.0,65.0,30.03,SW,217,4.0,5.0,95,0.00,,,0.00,,2013-03-22 17:02:00,
2013-03-22 07:12:00,66.0,65.0,30.03,SW,215,5.0,7.0,95,0.00,,,0.00,,2013-03-22 17:12:00,
2013-03-22 07:22:00,66.0,65.0,30.03,SW,215,5.0,7.0,95,0.00,,,0.00,,2013-03-22 17:22:00,
2013-03-22 07:32:00,68.0,67.0,30.03,SW,215,5.0,8.0,95,0.00,,,0.00,,2013-03-22 17:32:00,
2013-03-22 07:42:00,68.0,67.0,30.03,SW,215,5.0,8.0,95,0.00,,,0.00,,2013-03-22 17:42:00,
2013-03-22 07:52:00,70.0,68.0,30.04,SSW,206,4.0,7.0,94,0.00,,,0.00,,2013-03-22 17:52:00,
2013-03-22 08:01:00,72.0,70.0,30.04,SW,216,2.0,6.0,93,0.00,,,0.00,,2013-03-22 18:01:00,
2013-03-22 08:11:00,72.0,70.0,30.04,SW,216,2.0,6.0,93,0.00,,,0.00,,2013-03-22 18:11:00,
2013-03-22 08:22:00,74.0,72.0,30.05,SSW,204,1.0,4.0,92,0.00,,,0.00,,2013-03-22 18:22:00,
2013-03-22 08:32:00,76.0,72.0,30.06,SSW,212,3.0,5.0,88,0.00,,,0.00,,2013-03-22 18:32:00,
2013-03-22 08:42:00,76.0,72.0,30.06,SSW,212,3.0,5.0,88,0.00,,,0.00,,2013-03-22 18:42:00,
2013-03-22 08:52:00,77.0,72.0,30.06,SSE,168,3.0,8.0,84,0.00,,,0.00,,2013-03-22 18:52:00,
2013-03-22 09:02:00,76.0,70.0,30.06,ESE,118,2.0,4.0,83,0.00,,,0.00,,2013-03-22 19:02:00,
2013-03-22 09:12:00,76.0,70.0,30.06,ESE,118,2.0,4.0,83,0.00,,,0.00,,2013-03-22 19:12:00,
2013-03-22 09:22:00,74.0,68.0,30.06,SE,130,3.0,6.0,83,0.00,,,0.00,,2013-03-22 19:22:00,
2013-03-22 09:32:00,75.0,69.0,30.06,East,93,2.0,5.0,83,0.00,,,0.00,,2013-03-22 19:32:00,
2013-03-22 09:42:00,75.0,69.0,30.06,East,93,2.0,5.0,83,0.00,,,0.00,,2013-03-22 19:42:00,
2013-03-22 09:52:00,76.0,71.0,30.06,ENE,63,3.0,7.0,85,0.00,,,0.00,,2013-03-22 19:52:00,
2013-03-22 10:01:00,75.0,70.0,30.06,East,88,3.0,6.0,84,0.00,,,0.00,,2013-03-22 20:01:00,
2013-03-22 10:12:00,75.0,70.0,30.06,East,88,3.0,6.0,84,0.00,,,0.00,,2013-03-22 20:12:00,
2013-03-22 10:22:00,75.0,70.0,30.05,East,96,3.0,6.0,84,0.00,,,0.00,,2013-03-22 20:22:00,
2013-03-22 10:32:00,74.0,69.0,30.05,ESE,106,6.0,9.0,85,0.00,,,0.00,,2013-03-22 20:32:00,
2013-03-22 10:42:00,74.0,69.0,30.05,ESE,106,6.0,9.0,85,0.00,,,0.00,,2013-03-22 20:42:00,
2013-03-22 10:52:00,75.0,71.0,30.04,East,95,6.0,10.0,86,0.00,,,0.00,,2013-03-22 20:52:00,
2013-03-22 11:02:00,75.0,69.0,30.03,East,94,8.0,10.0,82,0.00,,,0.00,,2013-03-22 21:02:00,
2013-03-22 11:11:00,75.0,68.0,30.02,East,94,9.0,13.0,80,0.00,,,0.00,,2013-03-22 21:11:00,
2013-03-22 11:22:00,75.0,68.0,30.02,East,94,9.0,13.0,80,0.00,,,0.00,,2013-03-22 21:22:00,
2013-03-22 11:32:00,75.0,69.0,30.01,East,89,8.0,12.0,83,0.00,,,0.00,,2013-03-22 21:32:00,
2013-03-22 11:42:00,75.0,69.0,30.01,East,89,8.0,12.0,83,0.00,,,0.00,,2013-03-22 21:42:00,
2013-03-22 11:53:00,75.0,69.0,30.02,East,94,7.0,13.0,81,0.00,,,0.00,,2013-03-22 21:53:00,
2013-03-22 12:02:00,75.0,68.0,30.01,East,93,8.0,12.0,80,0.00,,,0.00,,2013-03-22 22:02:00,
2013-03-22 12:12:00,75.0,68.0,30.01,East,93,8.0,12.0,80,0.00,,,0.00,,2013-03-22 22:12:00,
2013-03-22 12:22:00,76.0,68.0,30.01,ESE,120,11.0,14.0,76,0.00,,,0.00,,2013-03-22 22:22:00,
2013-03-22 12:32:00,76.0,68.0,30.00,ESE,118,8.0,13.0,76,0.00,,,0.00,,2013-03-22 22:32:00,
2013-03-22 12:42:00,76.0,68.0,30.00,ESE,118,8.0,13.0,76,0.00,,,0.00,,2013-03-22 22:42:00,
2013-03-22 12:52:00,76.0,69.0,29.99,ESE,102,9.0,13.0,78,0.00,,,0.00,,2013-03-22 22:52:00,
2013-03-22 13:02:00,76.0,68.0,29.98,ESE,118,9.0,15.0,76,0.00,,,0.00,,2013-03-22 23:02:00,
2013-03-22 13:12:00,76.0,68.0,29.98,ESE,118,9.0,15.0,76,0.00,,,0.00,,2013-03-22 23:12:00,
2013-03-22 13:22:00,76.0,68.0,29.98,ESE,102,7.0,14.0,76,0.00,,,0.00,,2013-03-22 23:22:00,
2013-03-22 13:32:00,76.0,67.0,29.97,ESE,111,10.0,18.0,73,0.00,,,0.00,,2013-03-22 23:32:00,
2013-03-22 13:42:00,76.0,67.0,29.97,ESE,111,10.0,18.0,73,0.00,,,0.00,,2013-03-22 23:42:00,
2013-03-22 13:52:00,76.0,67.0,29.96,ESE,108,10.0,15.0,73,0.00,,,0.00,,2013-03-22 23:52:00,
2013-03-22 14:01:00,77.0,68.0,29.95,SSE,147,10.0,15.0,73,0.00,,,0.00,,2013-03-23 00:01:00,
2013-03-22 14:12:00,77.0,68.0,29.95,SSE,147,10.0,15.0,73,0.00,,,0.00,,2013-03-23 00:12:00,
2013-03-22 14:22:00,77.0,68.0,29.96,ESE,116,7.0,14.0,73,0.00,,,0.00,,2013-03-23 00:22:00,
2013-03-22 14:32:00,78.0,67.0,29.95,SE,125,7.0,15.0,70,0.00,,,0.00,,2013-03-23 00:32:00,
2013-03-22 14:42:00,78.0,67.0,29.95,SE,125,7.0,15.0,70,0.00,,,0.00,,2013-03-23 00:42:00,
2013-03-22 14:52:00,77.0,66.0,29.95,SSE,157,9.0,14.0,68,0.00,,,0.00,,2013-03-23 00:52:00,
2013-03-22 15:03:00,77.0,66.0,29.94,SE,125,8.0,14.0,69,0.00,,,0.00,,2013-03-23 01:03:00,
2013-03-22 15:11:00,77.0,66.0,29.94,SE,125,8.0,14.0,69,0.00,,,0.00,,2013-03-23 01:11:00,
2013-03-22 15:22:00,78.0,67.0,29.93,SSE,148,7.0,14.0,68,0.00,,,0.00,,2013-03-23 01:22:00,
2013-03-22 15:31:00,77.0,66.0,29.93,ESE,120,8.0,13.0,69,0.00,,,0.00,,2013-03-23 01:31:00,
2013-03-22 15:52:00,77.0,66.0,29.93,SE,125,7.0,10.0,70,0.00,,,0.00,,2013-03-23 01:52:00,
2013-03-22 16:02:00,77.0,67.0,29.93,ESE,121,7.0,11.0,71,0.00,,,0.00,,2013-03-23 02:02:00,
2013-03-22 16:12:00,77.0,67.0,29.93,ESE,121,7.0,11.0,71,0.00,,,0.00,,2013-03-23 02:12:00,
2013-03-22 16:22:00,77.0,67.0,29.93,ESE,106,9.0,13.0,71,0.00,,,0.00,,2013-03-23 02:22:00,
2013-03-22 16:31:00,77.0,66.0,29.94,SSE,162,11.0,16.0,70,0.00,,,0.00,,2013-03-23 02:31:00,
2013-03-22 16:42:00,77.0,66.0,29.94,SSE,162,11.0,16.0,70,0.00,,,0.00,,2013-03-23 02:42:00,
2013-03-22 16:52:00,77.0,66.0,29.94,SE,127,8.0,15.0,70,0.00,,,0.00,,2013-03-23 02:52:00,
2013-03-22 17:02:00,76.0,67.0,29.95,SE,131,9.0,11.0,73,0.00,,,0.00,,2013-03-23 03:02:00,
2013-03-22 17:11:00,76.0,67.0,29.95,SE,131,9.0,11.0,73,0.00,,,0.00,,2013-03-23 03:11:00,
2013-03-22 17:22:00,76.0,67.0,29.95,SE,133,6.0,10.0,75,0.00,,,0.00,,2013-03-23 03:22:00,
2013-03-22 17:32:00,75.0,67.0,29.95,SE,145,7.0,11.0,76,0.00,,,0.00,,2013-03-23 03:32:00,
2013-03-22 17:42:00,75.0,67.0,29.95,SE,145,7.0,11.0,76,0.00,,,0.00,,2013-03-23 03:42:00,
2013-03-22 17:53:00,75.0,67.0,29.95,SSE,164,7.0,10.0,76,0.00,,,0.00,,2013-03-23 03:53:00,
2013-03-22 18:02:00,75.0,67.0,29.96,South,177,7.0,10.0,77,0.00,,,0.00,,2013-03-23 04:02:00,
2013-03-22 18:12:00,75.0,67.0,29.96,South,177,7.0,10.0,77,0.00,,,0.00,,2013-03-23 04:12:00,
2013-03-22 18:22:00,75.0,68.0,29.96,SE,137,5.0,8.0,79,0.00,,,0.00,,2013-03-23 04:22:00,
2013-03-22 18:32:00,74.0,67.0,29.97,SSW,205,6.0,8.0,79,0.00,,,0.00,,2013-03-23 04:32:00,
2013-03-22 18:42:00,74.0,67.0,29.97,SSW,205,6.0,8.0,79,0.00,,,0.00,,2013-03-23 04:42:00,
2013-03-22 18:53:00,74.0,67.0,29.98,South,189,3.0,8.0,79,0.00,,,0.00,,2013-03-23 04:53:00,
2013-03-22 19:02:00,74.0,67.0,29.98,South,188,1.0,4.0,79,0.00,,,0.00,,2013-03-23 05:02:00,
2013-03-22 19:12:00,74.0,67.0,29.98,South,188,1.0,4.0,79,0.00,,,0.00,,2013-03-23 05:12:00,
2013-03-22 19:22:00,74.0,67.0,29.98,South,180,1.0,4.0,80,0.00,,,0.00,,2013-03-23 05:22:00,
2013-03-22 19:32:00,74.0,67.0,29.98,South,189,1.0,3.0,80,0.00,,,0.00,,2013-03-23 05:32:00,
2013-03-22 19:42:00,74.0,67.0,29.98,South,189,1.0,3.0,80,0.00,,,0.00,,2013-03-23 05:42:00,
2013-03-22 19:52:00,73.0,67.0,29.98,South,177,2.0,4.0,81,0.00,,,0.00,,2013-03-23 05:52:00,
2013-03-22 20:02:00,73.0,67.0,29.98,SSW,202,2.0,5.0,82,0.00,,,0.00,,2013-03-23 06:02:00,
2013-03-22 20:12:00,73.0,67.0,29.98,SSW,202,2.0,5.0,82,0.00,,,0.00,,2013-03-23 06:12:00,
2013-03-22 20:22:00,72.0,67.0,29.98,SSW,206,2.0,3.0,83,0.00,,,0.00,,2013-03-23 06:22:00,
2013-03-22 20:31:00,72.0,67.0,30.00,SSW,206,0.0,2.0,83,0.00,,,0.00,,2013-03-23 06:31:00,
2013-03-22 20:42:00,72.0,67.0,30.00,SSW,206,0.0,2.0,83,0.00,,,0.00,,2013-03-23 06:42:00,
2013-03-22 20:52:00,72.0,67.0,30.00,SSW,206,1.0,2.0,84,0.00,,,0.00,,2013-03-23 06:52:00,
2013-03-22 21:02:00,71.0,66.0,30.00,SSW,206,0.0,1.0,85,0.00,,,0.00,,2013-03-23 07:02:00,
2013-03-22 21:11:00,71.0,66.0,30.00,SSW,206,0.0,1.0,85,0.00,,,0.00,,2013-03-23 07:11:00,
2013-03-22 21:22:00,71.0,67.0,30.01,SSW,206,0.0,0.0,86,0.00,,,0.00,,2013-03-23 07:22:00,
2013-03-22 21:32:00,70.0,66.0,30.01,SSW,206,0.0,1.0,86,0.00,,,0.00,,2013-03-23 07:32:00,
2013-03-22 21:42:00,70.0,66.0,30.01,SSW,206,0.0,1.0,86,0.00,,,0.00,,2013-03-23 07:42:00,
2013-03-22 21:52:00,70.0,66.0,30.01,SSW,206,2.0,3.0,87,0.00,,,0.00,,2013-03-23 07:52:00,
2013-03-22 22:02:00,70.0,66.0,30.01,SW,219,3.0,4.0,88,0.00,,,0.00,,2013-03-23 08:02:00,
2013-03-22 22:12:00,70.0,66.0,30.01,SW,219,3.0,4.0,88,0.00,,,0.00,,2013-03-23 08:12:00,
2013-03-22 22:22:00,70.0,66.0,30.01,SSW,213,3.0,4.0,88,0.00,,,0.00,,2013-03-23 08:22:00,
2013-03-22 22:31:00,69.0,66.0,30.01,SSW,206,3.0,4.0,89,0.00,,,0.00,,2013-03-23 08:31:00,
2013-03-22 22:42:00,69.0,66.0,30.01,SSW,206,3.0,4.0,89,0.00,,,0.00,,2013-03-23 08:42:00,
2013-03-22 22:52:00,69.0,66.0,30.01,SW,222,2.0,4.0,89,0.00,,,0.00,,2013-03-23 08:52:00,
2013-03-22 23:01:00,69.0,66.0,30.01,SW,222,2.0,3.0,90,0.00,,,0.00,,2013-03-23 09:01:00,
2013-03-22 23:11:00,69.0,66.0,30.01,SW,222,2.0,3.0,90,0.00,,,0.00,,2013-03-23 09:11:00,
2013-03-22 23:22:00,69.0,66.0,30.01,WSW,239,2.0,4.0,90,0.00,,,0.00,,2013-03-23 09:22:00,
2013-03-22 23:32:00,69.0,66.0,30.01,WSW,242,2.0,4.0,90,0.00,,,0.00,,2013-03-23 09:32:00,
2013-03-22 23:42:00,69.0,66.0,30.01,WSW,242,2.0,4.0,90,0.00,,,0.00,,2013-03-23 09:42:00,
2013-03-22 23:53:00,68.0,65.0,30.00,SW,231,2.0,4.0,90,0.00,,,0.00,,2013-03-23 09:53:00,